Flag Weather past 2 weeks in Cambridge, Ontario, Canada

Now
34 °F

Fog.


Feels Like: 24 °F
Forecast: 18 / 38 °F
Wind: 14 mph from Southwest

Location: Waterloo Well

Current Time: Nov 22, 2014 at 11:38:04 AM

Latest Report: Nov 22, 2014 at 11:00 AM


Visibility: 4 mi

Pressure: 30.07 "Hg

Humidity: 93%

Dew point: 32 °F

Location of CambridgeLocation

Historic Weather in Cambridge — Graph

°F

Cambridge temperature yesterday

Maximum temperature yesterday: 25 °F (at 1:00 PM)
Minimum temperature yesterday: 9 °F (at 7:00 AM)
Average temperature yesterday: 18 °F

Past Weeks' High & Low Weather Summary

 TemperatureHumidityPressure
High61 °F (Nov 11, 1:00 PM)100% (Nov 8, 6:00 PM)30.47 "Hg (Nov 8, 6:00 PM)
Low9 °F (Nov 21, 7:00 AM)48% (Nov 11, 1:00 PM)29.55 "Hg (Nov 17, 1:48 PM)
Average29 °F81%29.97 "Hg
* Reported Nov 7 10:00 AM — Nov 22 10:00 AM, Cambridge, Weather by CustomWeather, © 2014

Note: Actual official high and low records may vary slightly from our data, if they occured in-between our weather recording intervals... More about our weather records

Advertising

Cambridge weather history for previous 24 hours

 ConditionsComfort  
Time TempWeatherWind HumidityBarometerVisibility
10:00 AM
Nov 22
34 °FOvercast.15 mph81%30.09 "Hg9 mi
9:47 AM34 °FMostly cloudy.16 mph75%30.10 "Hg9 mi
9:02 AM30 °FLight snow. Mostly cloudy.16 mph80%30.12 "Hg9 mi
8:00 AM28 °FOvercast.13 mph80%30.17 "Hg9 mi
7:00 AM27 °FPassing clouds.12 mph74%30.18 "Hg9 mi
6:00 AM25 °FPartly cloudy.9 mph80%30.21 "Hg9 mi
5:00 AM25 °FPassing clouds.7 mph80%30.24 "Hg9 mi
4:00 AM23 °FOvercast.8 mph80%30.27 "Hg9 mi
3:00 AM21 °FOvercast.8 mph80%30.29 "Hg9 mi
2:00 AM18 °FOvercast.9 mph86%30.31 "Hg9 mi
1:00 AM18 °FOvercast.7 mph79%30.34 "Hg9 mi
12:00 AM14 °FOvercast.5 mph79%30.36 "Hg9 mi
11:00 PM
Nov 21
16 °FClear.6 mph79%30.37 "Hg9 mi
10:00 PM16 °FPassing clouds.9 mph73%30.40 "Hg9 mi
9:00 PM14 °FClear.8 mph73%30.42 "Hg9 mi
8:00 PM14 °FClear.7 mph73%30.44 "Hg9 mi
7:00 PM16 °FClear.9 mph67%30.45 "Hg9 mi
6:00 PM18 °FClear.12 mph58%30.47 "Hg9 mi
5:00 PM19 °FClear.9 mph63%30.45 "Hg9 mi
4:01 PM21 °FSunny.17 mph58%30.43 "Hg9 mi
3:03 PM23 °FLight snow. Sunny.17 mph58%30.42 "Hg9 mi
2:01 PM23 °FLight snow. Passing clouds.15 mph58%30.42 "Hg9 mi
1:00 PM25 °FOvercast.15 mph54%30.40 "Hg9 mi
12:46 PM23 °FMostly cloudy.13 mph68%30.40 "Hg9 mi
12:00 PM23 °FPartly sunny.15 mph74%30.41 "Hg9 mi
11:00 AM23 °FOvercast.9 mph74%30.41 "Hg9 mi
Weather by CustomWeather, © 2014

See weather overviewHow to use our weather pages